Regional Weather Roundup
Issued by NWS

Home | Current Version | Previous Version | Text Only | Print | Product List | Glossary Off
Versions: 1 2 3 4 5 6 7 8 9 10 11 12 13 14 15 16 17 18 19 20 21 22 23 24 25 26 27 28 29 30 31 32 33 34 35 36 37 38 39 40 41 42 43 44 45 46 47 48 49 50

698
ASUS45 KSLC 290810
RWRUT

UTAH REGIONAL WEATHER ROUNDUP
NATIONAL WEATHER SERVICE SALT LAKE CITY UT
200 AM MDT MON MAY 29 2017

UTZ001>011-023>025-290900-

NORTHERN UTAH

CITY           SKY/WX    TMP DP  RH WIND       PRES   REMARKS
BRIGHAM CITY   CLEAR     58  38  48 CALM      30.16S
HILL AFB       CLEAR     58  36  43 E14       30.16F
LOGAN          CLEAR     51  41  68 CALM      30.19S
OGDEN          CLEAR     55  38  52 VRB3      30.15S
SALT LAKE CITY CLEAR     60  40  47 CALM      30.14S
TOOELE VALLEY  CLEAR     46  39  76 SE5       30.15F
WENDOVER       CLEAR     58  31  35 CALM      30.15F
HEBER CITY     CLEAR     45  36  70 CALM      30.22S
WEST JORDAN    CLEAR     57  40  53 NW7       30.16F

$$

UTZ011>015-024>027-290900-

CENTRAL/NORTHEAST UTAH

CITY           SKY/WX    TMP DP  RH WIND       PRES   REMARKS
PROVO AIRPORT  NOT AVBL
MOAB/CANYONLAN CLEAR     57  14  18 NW3       30.11R
DELTA          CLEAR     50  34  53 CALM      30.16S
PRICE          CLEAR     53  28  38 E3        30.20S
ROOSEVELT      CLEAR     46  37  71 SW7       30.22S
VERNAL         CLEAR     54  32  43 NW8       30.19F

$$

UTZ013>016-019>022-027-290900-

SOUTHERN UTAH

CITY           SKY/WX    TMP DP  RH WIND       PRES   REMARKS
BRYCE CANYON   CLEAR     39  25  57 W10       30.31S WCI  32
CEDAR CITY     CLEAR     51  19  28 CALM      30.17S
MILFORD        CLEAR     44  16  32 NE3       30.16S
ST GEORGE      SUNNY     73  22  14 E6        29.99R
HANKSVILLE     CLEAR     54  10  17 CALM      30.13S
BLANDING       CLEAR     53  17  23 N9        30.25S

$$

REGIONAL REPORTS     COLORADO/ARIZONA

CITY           SKY/WX    TMP DP  RH WIND       PRES   REMARKS
CRAIG, CO      CLEAR     38  33  82 CALM      30.26S
GRAND JUNCTION CLEAR     59  24  26 E3        30.14F
RIFLE, CO      CLEAR     51  30  44 SE9       30.23R
MONTROSE, CO   CLEAR     51  23  33 SE9       30.23S
CORTEZ, CO     CLEAR     39  29  67 NE5       30.20F
COLORADO CITY    N/A     68  27  21 NE6       30.13S
PAGE, AZ       CLEAR     65  23  20 W5        30.08R
GRAND CANYON   CLEAR     57  21  24 E7        30.22S
KINGMAN, AZ    CLEAR     61  18  18 MISG      29.98F
FLAGSTAFF, AZ  CLEAR     43  22  43 CALM      30.24S

$$

REGIONAL REPORTS    NEVADA/IDAHO/WYOMING

CITY           SKY/WX    TMP DP  RH WIND       PRES   REMARKS
LAS VEGAS, NV  CLEAR     78  16   9 S6        29.89S
ELY, NY        CLEAR     39  21  48 S9        30.25R WCI  33
ELKO, NV       CLEAR     47  36  65 SW7       30.18S
POCATELLO, ID  CLEAR     46  40  79 E5        30.20S
BURLEY, ID     CLEAR     51  42  71 S3        30.15S
FORT BRIDGER,    N/A     44  32  63 SE7       30.33S
EVANSTON, WY   CLEAR     50  28  42 S5        30.30F
ROCK SPRINGS,  CLEAR     45  36  70 NE5       30.32S
KEMMERER, WY     N/A     45  36  70 N7        30.33S

$$




USA.gov is the U.S. government's official web portal to all federal, state and local government web resources and services.